Monarch Pass, CO

3:57 AM MDT on April 26, 2017 (GMT -0600)
Monarch Pass

Weather History for KMYP - August, 2013

Change the Weather History Date:

Thursday, August 8, 2013

  Actual Average (KALS) Record (KALS)
Temperature  
Mean Temperature 45 °F -  
Max Temperature 53 °F 80 °F 88 °F (1962)
Min Temperature 37 °F 46 °F 34 °F (2011)
Degree Days  
Heating Degree Days 20    
Moisture  
Dew Point 34 °F    
Average Humidity 71    
Maximum Humidity 100    
Minimum Humidity 47    
Precipitation  
Precipitation 0.00 in - - ()
Sea Level Pressure  
Sea Level Pressure 30.63 in    
Wind  
Wind Speed 10 mph (ENE)    
Max Wind Speed 33 mph    
Max Gust Speed 37 mph    
Visibility 10 miles    
Events Fog , Rain , Thunderstorm    
Averages and records for this station are not official NWS values.
T = Trace of Precipitation, MM = Missing Value Source: NWS Daily Summary

Daily Weather History Graph

Daily Weather History Graph

Search for Another Location

Airport or City:

Trip Planner

Search our weather history database for the weather conditions in past years. The results will help you decide how hot, cold, wet, or windy it might be!

Date:

Astronomy

Aug. 08, 2013 Rise Set
Actual Time 6:13 AM MDT 8:06 PM MDT
Civil Twilight 5:44 AM MDT 8:35 PM MDT
Nautical Twilight 5:09 AM MDT 9:10 PM MDT
Astronomical Twilight 4:32 AM MDT 9:47 PM MDT
Moon 8:00 AM MDT (8/8) 8:49 PM MDT (8/8)
Length of Visible Light 14h 50m
Length of Day
13h 53m
Waxing Crescent, 3% of the Moon is Illuminated
Aug 8
Waxing Crescent
Aug 14
First Quarter
Aug 20
Full
Aug 28
Last Quarter
Sep 5
New

Hourly Weather History & Observations

Time (MDT) Temp. Windchill Dew Point Humidity Pressure Visibility Wind Dir Wind Speed Gust Speed Precip Events Conditions
12:15 AM 41.0 °F 36.4 °F 37.4 °F 87% 30.61 in - WSW 6.9 mph - N/A   Unknown
12:35 AM 41.0 °F 35.2 °F 37.4 °F 87% 30.61 in - West 9.2 mph - N/A   Unknown
12:55 AM 41.0 °F 34.7 °F 37.4 °F 87% 30.61 in - West 10.4 mph - N/A   Overcast
1:15 AM 41.0 °F 34.7 °F 37.4 °F 87% 30.60 in - West 10.4 mph - N/A   Overcast
1:35 AM 41.0 °F 35.8 °F 37.4 °F 87% 30.60 in - West 8.1 mph - N/A   Overcast
1:55 AM 42.8 °F 41.1 °F 33.8 °F 70% 30.59 in - NNW 3.5 mph - N/A   Mostly Cloudy
2:15 AM 42.8 °F - 32.0 °F 66% 30.58 in - Calm Calm - N/A   Overcast
2:35 AM 42.8 °F - 33.8 °F 70% 30.58 in - Calm Calm - N/A   Mostly Cloudy
2:55 AM 39.2 °F 33.6 °F 37.4 °F 93% 30.58 in - SW 8.1 mph - N/A   Unknown
3:15 AM 41.0 °F 36.4 °F 37.4 °F 87% 30.58 in - SW 6.9 mph - N/A   Overcast
3:35 AM 39.2 °F - 37.4 °F 93% 30.58 in - Calm Calm - N/A   Overcast
3:55 AM 41.0 °F - 35.6 °F 81% 30.58 in - Calm Calm - N/A   Mostly Cloudy
4:15 AM 44.6 °F 41.4 °F 28.4 °F 53% 30.58 in - East 5.8 mph - N/A   Overcast
4:35 AM 44.6 °F 40.7 °F 28.4 °F 53% 30.58 in - NE 6.9 mph - N/A   Overcast
4:55 AM 44.6 °F 40.2 °F 30.2 °F 57% 30.57 in - East 8.1 mph - N/A   Overcast
5:15 AM 44.6 °F 39.7 °F 30.2 °F 57% 30.57 in - ENE 9.2 mph - N/A   Overcast
5:35 AM 42.8 °F 38.0 °F 30.2 °F 61% 30.58 in - ENE 8.1 mph - N/A   Overcast
5:55 AM 42.8 °F 39.3 °F 30.2 °F 61% 30.58 in - ENE 5.8 mph - N/A   Overcast
6:16 AM 39.2 °F 37.0 °F 35.6 °F 87% 30.58 in - WSW 3.5 mph - N/A   Unknown
6:35 AM 37.4 °F 33.8 °F 37.4 °F 100% 30.58 in - SE 4.6 mph - N/A   Mostly Cloudy
6:55 AM 42.8 °F 38.0 °F 32.0 °F 66% 30.59 in - East 8.1 mph - N/A   Scattered Clouds
7:15 AM 42.8 °F 38.0 °F 32.0 °F 66% 30.60 in - East 8.1 mph - N/A   Scattered Clouds
7:35 AM 42.8 °F 38.6 °F 32.0 °F 66% 30.61 in - East 6.9 mph - N/A   Scattered Clouds
7:56 AM 42.8 °F 36.2 °F 32.0 °F 66% 30.60 in - ENE 12.7 mph - N/A   Scattered Clouds
8:16 AM 42.8 °F 36.6 °F 32.0 °F 66% 30.61 in - ENE 11.5 mph 18.4 mph N/A   Scattered Clouds
8:36 AM 42.8 °F 37.0 °F 33.8 °F 70% 30.61 in - ENE 10.4 mph - N/A   Clear
8:55 AM 44.6 °F 37.8 °F 33.8 °F 66% 30.62 in - ENE 15.0 mph - N/A   Scattered Clouds
9:15 AM 46.4 °F 39.2 °F 33.8 °F 62% 30.62 in - ENE 18.4 mph 24.2 mph N/A   Scattered Clouds
9:35 AM 44.6 °F 36.9 °F 33.8 °F 66% 30.62 in - ENE 18.4 mph 23.0 mph N/A   Overcast
9:55 AM 44.6 °F 37.8 °F 33.8 °F 66% 30.62 in - ENE 15.0 mph - N/A   Overcast
10:08 AM - - - N/A% 30.63 in - ENE 16.1 mph - N/A   Unknown
10:24 AM 44.6 °F 36.4 °F 32.0 °F 61% 30.63 in - ENE 20.7 mph - N/A   Unknown
11:28 AM 48.2 °F - 35.6 °F 62% 30.63 in 10.0 mi ENE 20.7 mph - N/A   Mostly Cloudy
11:48 AM 50.0 °F - 33.8 °F 54% 30.63 in 10.0 mi ENE 20.7 mph - N/A   Overcast
12:08 PM 51.8 °F - 33.8 °F 50% 30.63 in - East 19.6 mph 25.3 mph N/A   Overcast
12:28 PM 51.8 °F - 32.0 °F 47% 30.63 in 10.0 mi ENE 16.1 mph - N/A Thunderstorm Thunderstorm
12:48 PM 53.6 °F - 33.8 °F 47% 30.63 in 10.0 mi ENE 20.7 mph 24.2 mph N/A Thunderstorm Mostly Cloudy
1:08 PM 51.8 °F - 32.0 °F 47% 30.62 in 10.0 mi ENE 20.7 mph 25.3 mph N/A Thunderstorm Mostly Cloudy
1:28 PM 51.8 °F - 32.0 °F 47% 30.63 in 10.0 mi ENE 13.8 mph 26.5 mph N/A   Mostly Cloudy
1:48 PM 51.8 °F - 33.8 °F 50% 30.62 in 10.0 mi ENE 17.3 mph 24.2 mph N/A Thunderstorm Scattered Clouds
2:08 PM 51.8 °F - 32.0 °F 47% 30.61 in 10.0 mi ENE 23.0 mph 27.6 mph N/A Thunderstorm Mostly Cloudy
2:28 PM 48.2 °F - 35.6 °F 62% 30.60 in 10.0 mi ENE 28.8 mph 33.4 mph N/A Thunderstorm Overcast
2:48 PM 46.4 °F 37.7 °F 33.8 °F 62% 30.61 in 10.0 mi East 26.5 mph 36.8 mph N/A Thunderstorm Thunderstorm
3:08 PM 46.4 °F 38.1 °F 32.0 °F 57% 30.62 in 10.0 mi ENE 24.2 mph - N/A Thunderstorm Overcast
3:28 PM 44.6 °F 34.2 °F 32.0 °F 61% 30.60 in 10.0 mi ENE 33.4 mph 36.8 mph N/A   Mostly Cloudy
3:33 PM 44.6 °F 35.1 °F 32.0 °F 61% 30.61 in 10.0 mi ENE 27.6 mph - N/A Thunderstorm Thunderstorm
5:08 PM 44.6 °F 34.9 °F 33.8 °F 66% 30.63 in 10.0 mi ENE 28.8 mph 34.5 mph N/A   Mostly Cloudy
5:28 PM 42.8 °F 32.9 °F 33.8 °F 70% 30.65 in 10.0 mi ENE 26.5 mph 33.4 mph N/A   Overcast
5:48 PM 42.8 °F 33.3 °F 33.8 °F 70% 30.66 in 10.0 mi ENE 24.2 mph 31.1 mph N/A Thunderstorm Overcast
6:08 PM 41.0 °F 31.6 °F 35.6 °F 81% 30.66 in 10.0 mi ENE 20.7 mph 27.6 mph N/A Rain , Thunderstorm Rain
6:28 PM 39.2 °F 29.6 °F 37.4 °F 93% 30.66 in 7.0 mi ENE 19.6 mph - N/A Rain Rain
6:48 PM 39.2 °F 30.2 °F 37.4 °F 93% 30.67 in 0.2 mi ENE 17.3 mph - N/A Fog Fog
7:08 PM 39.2 °F 32.5 °F 37.4 °F 93% 30.67 in 10.0 mi NE 10.4 mph - N/A   Overcast
7:28 PM 39.2 °F 35.0 °F 37.4 °F 93% 30.68 in 10.0 mi ENE 5.8 mph - N/A   Overcast
7:48 PM 39.2 °F 37.0 °F 37.4 °F 93% 30.68 in 10.0 mi ESE 3.5 mph - N/A   Overcast
8:08 PM 41.0 °F 39.0 °F 33.8 °F 76% 30.68 in 10.0 mi ENE 3.5 mph - N/A   Overcast
8:28 PM 41.0 °F 39.0 °F 35.6 °F 81% 30.68 in 10.0 mi NNE 3.5 mph - N/A   Overcast
8:48 PM 41.0 °F - 35.6 °F 81% 30.69 in 10.0 mi Calm Calm - N/A   Overcast
9:08 PM 39.2 °F 37.0 °F 35.6 °F 87% 30.69 in 10.0 mi West 3.5 mph - N/A   Overcast
9:28 PM 41.0 °F 37.1 °F 35.6 °F 81% 30.69 in 10.0 mi West 5.8 mph - N/A   Overcast
9:48 PM 41.0 °F 37.1 °F 33.8 °F 76% 30.70 in 10.0 mi East 5.8 mph - N/A   Overcast
10:08 PM 39.2 °F 34.2 °F 33.8 °F 81% 30.70 in 10.0 mi ENE 6.9 mph - N/A   Overcast
10:28 PM 37.4 °F 32.1 °F 35.6 °F 93% 30.70 in 10.0 mi East 6.9 mph - N/A   Overcast
10:48 PM 39.2 °F 34.2 °F 33.8 °F 81% 30.70 in 10.0 mi ENE 6.9 mph - N/A Thunderstorm Overcast
11:08 PM 41.0 °F 39.0 °F 33.8 °F 76% 30.70 in 10.0 mi East 3.5 mph - N/A   Overcast
11:28 PM 41.0 °F - 33.8 °F 76% 30.70 in 10.0 mi Calm Calm - N/A   Overcast
11:48 PM 41.0 °F - 32.0 °F 70% 30.71 in 10.0 mi Calm Calm - N/A   Overcast